This is the latest recevied weather packets stored in our database for station/object N5TDX. If no packets are shown the sender has not sent any weather packets the latest 10 day(s).
| Time | Temp. | Humidity | Pressure | Rain* | Wind** | Luminosity | Snow |
|---|---|---|---|---|---|---|---|
| 1777658976 | 17.78° C | 45% | 1013.2 hPa | 0 mm | - | - | - |
| 1777658673 | 17.78° C | 45% | 1013 hPa | 0 mm | - | - | - |
| 1777658369 | 17.78° C | 45% | 1013.1 hPa | 0 mm | - | - | - |
| 1777658066 | 17.78° C | 45% | 1013.1 hPa | 0 mm | - | - | - |
| 1777657763 | 18.33° C | 46% | 1013 hPa | 0 mm | - | - | - |
| 1777657460 | 18.33° C | 44% | 1013.1 hPa | 0 mm | - | - | - |
| 1777657158 | 18.33° C | 44% | 1013.2 hPa | 0 mm | - | - | - |
| 1777656855 | 18.33° C | 42% | 1013.6 hPa | 0 mm | - | - | - |
| 1777656550 | 18.33° C | 45% | 1013.6 hPa | 0 mm | - | - | - |
| 1777656246 | 17.22° C | 47% | 1013.7 hPa | 0 mm | - | - | - |
| 1777655942 | 17.78° C | 46% | 1013.5 hPa | 0 mm | - | - | - |
| 1777655638 | 17.78° C | 49% | 1013.4 hPa | 0 mm | - | - | - |
| 1777655335 | 17.22° C | 51% | 1013.4 hPa | 0 mm | - | - | - |
| 1777655032 | 16.67° C | 52% | 1013.7 hPa | 0 mm | - | - | - |
| 1777654730 | 16.67° C | 50% | 1013.3 hPa | 0 mm | - | - | - |
| 1777654428 | 16.67° C | 50% | 1013.7 hPa | 0 mm | - | - | - |
| 1777654125 | 16.11° C | 53% | 1013.5 hPa | 0 mm | - | - | - |
| 1777653823 | 16.11° C | 54% | 1014 hPa | 0 mm | - | - | - |
| 1777653518 | 16.11° C | 54% | 1014.2 hPa | 0 mm | - | - | - |
| 1777653215 | 16.11° C | 55% | 1014.2 hPa | 0 mm | - | - | - |
| 1777652912 | 16.67° C | 55% | 1014 hPa | 0 mm | - | - | - |
| 1777652609 | 16.67° C | 58% | 1013.7 hPa | 0 mm | - | - | - |
| 1777652306 | 16.11° C | 63% | 1013.7 hPa | 0 mm | - | - | - |
| 1777652002 | 16.11° C | 60% | 1014 hPa | 0 mm | - | - | - |
| 1777651699 | 15.56° C | 65% | 1013.8 hPa | 0 mm | - | - | - |
* Rain latest hour (hover to see other rain measurements)
** Current wind speed in m/s (hover to see current wind gust speed)